Temp
-15 -15 -16 -16 -16 -17 -16 -16 -15 -15 -16 -16 -14 -13 -13 -13 -14 -13 -13 -13 -13 -13 -14 -14 -14 -13 -12 -12 -12 -12 -12 -11 -11 -11 -11 -11 -11 -11 -10 -10 -10 -10 -10 -11
-16 -16 -17 -17 -17 -17 -17 -17 -17 -17 -18 -17 -16 -15 -15 -13 -13 -13 -13 -13 -13 -14 -14 -14 -14 -14 -13 -12 -12 -12 -12 -12 -12 -11 -11 -11 -11 -11 -10 -10 -10 -10 -10 -11
-17 -17 -17 -17 -17 -17 -17 -17 -18 -18 -18 -18 -18 -16 -16 -15 -13 -13 -14 -13 -13 -13 -14 -14 -14 -14 -13 -12 -12 -13 -13 -12 -12 -11 -11 -11 -11 -10 -10 -10 -10 -11 -11 -11
-17 -17 -17 -17 -16 -18 -17 -18 -18 -18 -19 -19 -20 -14 -16 -16 -15 -13 -13 -13 -13 -12 -14 -13 -14 -14 -14 -13 -13 -13 -13 -12 -12 -11 -11 -11 -11 -11 -11 -11 -11 -11 -11 -11
-18 -17 -17 -17 -18 -18 -18 -19 -19 -19 -19 -20 -20 -20 -13 -17 -16 -13 -13 -13 -13 -13 -13 -13 -13 -14 -14 -14 -14 -13 -13 -12 -12 -11 -11 -11 -11 -11 -11 -11 -10 -10 -10 -11
-18 -18 -18 -18 -18 -18 -19 -19 -20 -20 -20 -21 -22 -22 -18 -17 -16 -15 -13 -14 -13 -13 -13 -14 -13 -14 -14 -14 -14 -13 -13 -13 -13 -12 -12 -11 -11 -11 -11 -11 -11 -11 -12 -12
-18 -19 -19 -19 -18 -19 -20 -21 -21 -21 -21 -22 -22 -23 -21 -19 -18 -17 -14 -14 -13 -13 -13 -13 -14 -14 -14 -14 -14 -14 -14 -14 -13 -12 -12 -11 -11 -11 -11 -11 -11 -11 -12 -12
-18 -17 -19 -19 -19 -20 -21 -21 -22 -23 -24 -24 -24 -23 -21 -20 -19 -18 -15 -14 -14 -13 -13 -13 -14 -14 -14 -14 -14 -14 -14 -14 -13 -13 -12 -12 -11 -11 -12 -12 -12 -12 -12 -12
-19 -18 -19 -19 -20 -20 -21 -21 -23 -24 -24 -24 -23 -22 -21 -19 -19 -17 -16 -15 -14 -13 -13 -13 -14 -14 -14 -15 -14 -14 -14 -14 -14 -13 -13 -12 -12 -12 -12 -13 -12 -12 -12 -12
-20 -19 -19 -20 -20 -21 -22 -23 -24 -24 -25 -23 -22 -21 -20 -18 -18 -17 -16 -15 -15 -14 -14 -14 -14 -14 -14 -15 -15 -14 -14 -14 -13 -13 -13 -13 -13 -13 -13 -13 -13 -12 -13 -13
-20 -20 -19 -19 -20 -21 -22 -23 -22 -23 -24 -22 -20 -19 -17 -16 -16 -17 -16 -15 -14 -14 -14 -14 -14 -14 -14 -15 -15 -14 -14 -14 -14 -13 -13 -13 -13 -13 -13 -13 -14 -13 -13 -13
-20 -20 -19 -19 -20 -20 -21 -21 -20 -21 -21 -21 -20 -17 -16 -17 -17 -16 -15 -15 -15 -15 -15 -15 -15 -15 -14 -15 -14 -14 -14 -14 -14 -14 -13 -13 -13 -14 -14 -14 -14 -14 -13 -13
-20 -20 -19 -19 -19 -20 -20 -20 -20 -19 -19 -19 -19 -16 -16 -16 -16 -16 -16 -15 -15 -14 -14 -15 -14 -14 -14 -15 -15 -14 -15 -14 -14 -14 -13 -13 -13 -13 -13 -13 -13 -13 -13 -13
-19 -20 -19 -19 -19 -19 -19 -19 -19 -19 -19 -19 -18 -18 -17 -16 -16 -16 -16 -16 -15 -15 -15 -15 -15 -14 -13 -14 -14 -14 -14 -15 -14 -14 -13 -13 -13 -12 -12 -13 -13 -13 -13 -12
-19 -19 -19 -19 -19 -19 -19 -19 -19 -19 -18 -18 -18 -18 -17 -17 -16 -16 -16 -15 -15 -15 -15 -14 -15 -14 -14 -14 -14 -14 -14 -14 -14 -14 -14 -14 -13 -13 -13 -13 -13 -13 -13 -13
-19 -19 -19 -19 -19 -19 -18 -18 -18 -18 -17 -17 -17 -17 -17 -17 -17 -16 -15 -15 -15 -15 -15 -14 -14 -14 -14 -14 -14 -14 -14 -14 -14 -15 -14 -14 -14 -14 -13 -13 -13 -13 -13 -13
-19 -20 -19 -19 -19 -19 -18 -18 -18 -18 -18 -18 -17 -17 -17 -17 -16 -16 -16 -15 -15 -15 -15 -14 -14 -14 -14 -13 -13 -13 -13 -13 -14 -14 -14 -13 -13 -13 -13 -13 -13 -13 -13 -13
-20 -19 -19 -19 -19 -18 -18 -18 -18 -18 -18 -18 -18 -18 -18 -18 -17 -17 -16 -16 -16 -16 -15 -15 -14 -14 -14 -13 -13 -13 -13 -13 -13 -13 -13 -14 -14 -14 -13 -13 -13 -13 -13 -13
-20 -20 -19 -19 -19 -19 -19 -18 -18 -18 -18 -18 -18 -18 -18 -17 -17 -17 -17 -16 -16 -16 -16 -15 -15 -14 -14 -14 -13 -13 -13 -13 -13 -13 -13 -13 -13 -13 -14 -14 -13 -13 -13 -14
-21 -20 -20 -20 -20 -19 -19 -19 -19 -19 -18 -18 -18 -18 -18 -17 -17 -17 -17 -17 -17 -16 -16 -16 -15 -15 -15 -14 -14 -14 -13 -14 -13 -13 -13 -13 -13 -13 -13 -13 -14 -14 -14 -13
-21 -21 -20 -20 -20 -19 -19 -19 -19 -19 -19 -19 -18 -18 -18 -18 -17 -17 -17 -17 -17 -17 -17 -16 -16 -16 -16 -15 -15 -15 -15 -15 -14 -14 -14 -13 -13 -13 -13 -14 -14 -14 -13 -13
-21 -21 -21 -20 -20 -20 -20 -20 -19 -19 -19 -19 -19 -19 -18 -18 -18 -18 -18 -17 -17 -17 -17 -17 -17 -17 -16 -16 -16 -16 -15 -15 -15 -15 -15 -15 -15 -14 -14 -14 -14 -14 -14 -14
-21 -21 -21 -21 -21 -21 -21 -20 -20 -20 -20 -20 -20 -20 -20 -20 -20 -19 -19 -19 -19 -18 -18 -18 -18 -17 -17 -17 -16 -16 -16 -16 -16 -15 -15 -15 -15 -15 -15 -15 -15 -15 -15 -15
-20 -21 -22 -21 -21 -21 -21 -21 -21 -21 -20 -20 -20 -20 -20 -20 -20 -19 -19 -19 -19 -19 -19 -18 -18 -18 -18 -18 -17 -17 -17 -17 -17 -16 -16 -16 -16 -15 -15 -15 -15 -15 -15 -15
-20 -20 -20 -21 -22 -21 -21 -21 -21 -21 -21 -21 -21 -21 -21 -20 -20 -20 -20 -20 -20 -19 -19 -19 -18 -18 -18 -18 -17 -17 -17 -17 -17 -17 -17 -17 -16 -16 -16 -15 -15 -15 -15 -15
-20 -20 -20 -20 -20 -21 -21 -22 -21 -21 -21 -21 -21 -21 -21 -21 -21 -21 -21 -20 -20 -20 -20 -20 -19 -19 -19 -18 -18 -18 -18 -17 -17 -17 -16 -16 -16 -16 -16 -16 -16 -16 -16 -16
Height
5673 5674 5673 5672 5672 5673 5674 5675 5677 5680 5681 5683 5692 5689 5703 5709 5714 5720 5729 5736 5743 5751 5758 5763 5772 5776 5781 5784 5787 5791 5795 5799 5801 5805 5810 5814 5818 5820 5824 5827 5829 5832 5835 5836
5663 5664 5662 5662 5662 5662 5663 5664 5670 5664 5665 5663 5673 5674 5680 5693 5703 5708 5716 5723 5732 5739 5746 5755 5762 5769 5775 5779 5781 5785 5789 5791 5795 5798 5802 5805 5808 5812 5816 5819 5823 5826 5828 5830
5656 5655 5651 5652 5652 5651 5653 5651 5649 5647 5649 5649 5649 5650 5662 5678 5688 5695 5704 5714 5721 5728 5737 5745 5753 5761 5767 5774 5777 5780 5782 5784 5787 5790 5793 5797 5800 5807 5811 5815 5818 5821 5821 5824
5648 5645 5644 5643 5643 5638 5640 5635 5632 5632 5634 5634 5636 5629 5643 5658 5670 5681 5693 5702 5713 5721 5728 5737 5742 5748 5758 5767 5769 5773 5775 5777 5780 5784 5787 5790 5795 5800 5805 5806 5809 5811 5814 5817
5639 5637 5637 5635 5632 5628 5629 5621 5620 5617 5618 5613 5616 5607 5618 5636 5651 5673 5682 5691 5700 5710 5717 5726 5734 5742 5750 5755 5762 5765 5768 5771 5774 5779 5782 5784 5788 5794 5797 5799 5801 5804 5808 5811
5631 5628 5626 5623 5620 5616 5613 5607 5606 5603 5602 5587 5604 5599 5596 5624 5642 5657 5667 5678 5687 5698 5705 5714 5724 5730 5738 5744 5752 5757 5762 5766 5768 5774 5776 5779 5783 5787 5789 5793 5796 5798 5801 5802
5623 5621 5617 5613 5608 5602 5597 5594 5590 5587 5583 5575 5596 5588 5582 5614 5631 5644 5655 5666 5674 5685 5694 5702 5711 5719 5730 5737 5746 5751 5756 5760 5764 5768 5770 5774 5777 5778 5781 5785 5787 5790 5793 5794
5613 5609 5606 5601 5596 5589 5584 5583 5579 5572 5571 5572 5576 5567 5575 5613 5619 5628 5641 5655 5664 5675 5685 5692 5700 5711 5721 5731 5737 5744 5748 5753 5757 5761 5764 5767 5769 5771 5774 5777 5780 5783 5786 5786
5605 5601 5598 5593 5586 5579 5574 5571 5573 5567 5569 5567 5568 5572 5583 5601 5612 5624 5635 5646 5656 5666 5676 5683 5690 5700 5710 5720 5730 5736 5742 5744 5750 5754 5756 5760 5762 5764 5767 5771 5772 5774 5777 5779
5605 5597 5594 5586 5577 5570 5567 5567 5564 5562 5568 5569 5572 5576 5583 5595 5607 5619 5631 5641 5649 5659 5669 5677 5684 5690 5698 5708 5720 5725 5732 5736 5740 5744 5746 5750 5755 5757 5759 5762 5764 5766 5768 5769
5601 5596 5591 5581 5573 5567 5566 5566 5568 5568 5569 5570 5575 5584 5589 5597 5606 5616 5626 5635 5644 5652 5660 5668 5674 5679 5687 5697 5707 5716 5721 5727 5730 5735 5739 5741 5746 5748 5750 5752 5753 5755 5757 5759
5600 5594 5587 5582 5576 5572 5571 5569 5570 5570 5574 5574 5578 5585 5589 5598 5609 5615 5624 5632 5639 5646 5651 5659 5666 5671 5678 5687 5699 5707 5712 5718 5722 5724 5727 5731 5734 5737 5739 5743 5745 5744 5746 5748
5597 5594 5591 5586 5585 5577 5576 5576 5577 5579 5581 5584 5585 5590 5597 5603 5610 5615 5622 5630 5636 5641 5644 5650 5655 5659 5668 5678 5689 5697 5703 5708 5711 5714 5717 5720 5724 5726 5730 5733 5734 5734 5735 5738
5598 5596 5593 5590 5587 5585 5582 5578 5580 5581 5584 5586 5591 5594 5595 5604 5610 5615 5621 5627 5631 5634 5638 5642 5647 5652 5660 5668 5678 5686 5691 5698 5702 5706 5709 5711 5715 5716 5718 5721 5722 5724 5725 5725
5598 5597 5595 5591 5588 5589 5587 5585 5583 5584 5587 5589 5592 5594 5600 5606 5609 5612 5616 5620 5626 5629 5631 5635 5641 5646 5653 5658 5667 5674 5680 5687 5691 5695 5698 5702 5704 5706 5709 5710 5712 5714 5715 5716
5598 5598 5596 5594 5591 5588 5588 5587 5586 5587 5589 5592 5593 5596 5601 5605 5607 5610 5613 5615 5618 5622 5624 5628 5634 5639 5645 5652 5657 5665 5670 5673 5676 5680 5684 5688 5692 5695 5697 5698 5700 5701 5704 5705
5598 5596 5596 5595 5593 5592 5592 5591 5590 5590 5591 5593 5594 5598 5599 5600 5604 5606 5608 5611 5613 5615 5616 5620 5626 5631 5637 5643 5648 5652 5656 5659 5663 5667 5669 5671 5673 5677 5681 5684 5685 5687 5690 5692
5598 5596 5595 5595 5595 5594 5593 5593 5593 5594 5594 5594 5596 5597 5599 5600 5601 5602 5605 5608 5610 5611 5611 5615 5620 5625 5629 5633 5637 5640 5642 5645 5650 5653 5655 5656 5660 5662 5666 5670 5672 5674 5677 5678
5597 5596 5596 5595 5595 5595 5594 5594 5595 5596 5596 5595 5596 5597 5599 5600 5602 5602 5603 5605 5606 5607 5607 5610 5614 5617 5620 5624 5627 5629 5632 5635 5638 5641 5642 5644 5646 5648 5651 5654 5657 5659 5661 5663
5595 5595 5596 5597 5595 5595 5595 5596 5596 5596 5596 5597 5597 5597 5598 5599 5600 5601 5602 5604 5604 5604 5604 5606 5608 5611 5613 5615 5617 5619 5621 5623 5626 5628 5630 5632 5634 5636 5639 5641 5643 5644 5644 5643
5593 5594 5595 5596 5596 5597 5596 5596 5596 5597 5599 5597 5597 5597 5597 5599 5600 5600 5600 5601 5601 5601 5602 5603 5604 5606 5608 5609 5611 5612 5613 5614 5615 5616 5617 5619 5620 5623 5625 5625 5626 5629 5632 5631
5593 5594 5594 5595 5595 5596 5595 5596 5597 5597 5595 5596 5596 5596 5596 5597 5597 5598 5598 5599 5600 5600 5600 5600 5601 5601 5602 5604 5604 5605 5606 5606 5606 5606 5606 5606 5607 5608 5609 5610 5610 5610 5611 5612
5592 5593 5593 5595 5594 5593 5594 5594 5595 5595 5596 5595 5595 5595 5595 5596 5596 5597 5599 5599 5599 5598 5598 5598 5599 5599 5599 5599 5599 5600 5600 5599 5599 5598 5598 5597 5598 5598 5597 5596 5596 5596 5595 5594
5592 5590 5590 5591 5591 5591 5592 5592 5592 5593 5594 5594 5594 5595 5595 5596 5596 5597 5598 5598 5598 5598 5597 5596 5595 5595 5595 5594 5594 5593 5592 5591 5590 5589 5588 5587 5587 5586 5586 5585 5585 5583 5582 5582
5594 5591 5589 5589 5589 5589 5590 5590 5590 5590 5590 5591 5592 5592 5593 5593 5593 5594 5594 5595 5594 5594 5593 5593 5592 5590 5589 5588 5587 5585 5583 5581 5579 5578 5577 5575 5574 5573 5572 5571 5570 5570 5569 5568
5594 5593 5591 5589 5587 5586 5586 5586 5587 5586 5587 5587 5588 5588 5588 5589 5589 5589 5589 5588 5588 5587 5587 5586 5584 5582 5581 5579 5577 5575 5573 5571 5568 5565 5563 5561 5559 5556 5554 5553 5552 5552 5550 5550
Wind_Speed
31 31 27 31 33 35 38 43 48 49 50 52 56 65 57 58 57 57 53 48 48 48 57 48 46 46 40 36 35 31 32 35 36 38 37 38 37 38 34 32 30 27 25 23
26 26 30 27 22 27 32 36 36 42 46 56 57 62 61 62 59 59 57 53 48 52 59 55 49 47 43 35 35 33 32 33 34 34 36 40 42 40 37 35 32 28 26 24
23 26 21 22 26 36 38 45 45 48 51 57 65 70 63 58 65 61 59 56 51 50 58 61 52 46 45 40 29 33 31 35 34 34 38 40 43 41 37 33 28 25 27 26
24 27 27 29 35 41 47 49 48 55 55 58 62 82 71 63 63 67 62 57 54 48 52 58 57 53 47 41 37 36 34 32 33 34 35 39 39 39 36 34 30 33 30 27
22 26 27 34 42 49 50 52 52 52 54 60 57 76 87 67 64 63 63 58 55 51 47 55 58 55 46 42 41 37 36 33 32 32 32 35 38 37 38 35 36 34 28 27
24 25 27 31 37 43 49 46 45 50 53 65 53 62 80 68 61 57 62 59 54 52 48 50 61 58 52 46 44 41 36 31 29 29 31 32 35 37 37 35 36 30 26 31
24 24 26 32 41 46 44 40 47 52 56 64 50 56 71 60 51 51 60 59 55 54 48 50 60 62 53 48 43 41 37 31 27 27 30 32 33 35 37 37 36 31 32 32
28 29 31 39 47 37 26 33 46 47 47 47 39 56 58 49 43 54 59 57 54 53 49 47 51 56 54 50 45 43 42 33 30 27 29 33 34 34 35 37 33 31 33 34
35 33 37 42 26 30 33 34 31 36 28 29 28 24 27 34 40 48 54 48 47 51 46 41 49 54 54 53 48 44 43 40 34 29 29 32 34 34 34 34 33 35 37 37
30 33 28 28 30 27 25 22 25 28 26 21 18 15 24 25 38 39 43 42 41 41 40 39 45 55 49 54 51 47 46 46 41 37 35 34 35 35 34 35 38 41 41 41
27 26 26 25 21 6 5 9 15 18 25 15 6 19 20 14 20 29 33 31 34 35 36 41 43 46 53 55 55 50 48 46 47 45 42 37 38 41 45 45 43 46 45 44
20 25 21 21 18 7 2 3 5 9 17 21 9 19 22 25 21 20 19 23 26 28 27 35 45 40 56 57 54 51 47 47 47 49 46 45 49 49 50 47 49 50 50 48
19 23 19 9 10 3 2 3 1 2 7 3 8 10 18 19 22 22 19 16 26 32 36 35 37 35 41 60 54 55 54 53 51 51 51 49 47 46 49 49 49 52 52 52
16 15 17 10 8 3 11 14 14 11 16 5 4 10 9 15 14 15 12 17 21 24 29 29 35 39 48 54 62 57 59 55 56 53 54 55 54 48 46 49 50 54 53 56
14 10 11 9 11 14 19 22 25 21 6 3 7 8 2 8 12 12 9 13 22 25 22 27 36 39 47 55 68 62 59 59 59 59 58 55 55 57 58 58 56 56 54 55
10 8 7 6 14 18 15 11 8 3 4 2 3 1 5 11 9 9 12 18 17 22 21 30 38 38 38 48 59 63 61 65 68 67 67 63 60 59 61 62 62 61 59 60
6 9 4 4 5 2 8 10 11 1 2 3 7 12 15 18 16 10 7 11 14 15 18 25 30 30 38 37 42 49 57 67 71 75 75 73 75 72 73 70 70 67 68 67
2 6 8 6 3 5 2 6 8 5 1 8 7 14 15 16 12 10 12 13 12 9 9 22 30 27 35 41 34 37 46 58 60 66 72 75 79 82 80 80 77 73 71 72
4 2 5 8 7 2 2 2 1 2 2 2 7 10 10 13 12 14 14 14 14 13 11 11 17 29 34 36 38 40 48 49 52 52 56 66 71 77 77 78 79 79 75 80
7 3 4 3 6 5 2 3 4 3 5 7 8 7 5 3 4 5 7 8 8 8 9 10 12 18 20 29 36 41 45 42 49 51 50 53 57 60 66 69 71 66 73 73
9 7 4 4 2 3 4 6 6 4 6 5 8 8 9 9 7 5 5 5 5 8 10 11 12 13 15 18 21 25 30 32 33 36 40 43 44 47 54 62 69 75 74 60
11 12 10 8 6 4 4 4 6 4 5 6 5 7 7 8 5 5 7 11 13 12 12 13 14 15 19 22 23 26 28 29 30 31 33 37 40 42 42 43 46 46 45 45
3 15 16 14 12 9 7 6 4 3 4 3 1 2 1 1 2 4 5 7 9 10 12 13 16 19 21 24 25 26 28 30 33 34 35 38 41 42 43 44 44 45 47 49
15 7 9 16 15 15 14 13 11 9 9 8 7 6 7 7 8 8 8 10 11 13 15 16 19 21 22 25 27 30 32 34 37 39 41 42 43 44 45 46 49 50 51 51
14 14 12 3 14 19 18 17 17 16 15 14 14 13 13 14 15 16 16 18 19 21 23 25 27 28 30 32 34 37 40 42 43 45 46 48 49 50 51 53 54 54 55 56
10 13 13 12 11 6 10 19 22 22 22 22 21 21 21 21 21 21 22 25 27 30 33 34 35 35 35 36 36 37 39 41 45 50 53 55 58 60 61 62 62 62 63 64
Wind_Direction
280 283 279 268 268 272 271 270 266 266 266 259 254 248 239 234 233 236 237 239 233 227 223 221 226 232 223 236 239 239 236 238 234 234 232 228 227 229 228 231 238 242 244 248
276 278 276 271 286 275 274 282 282 273 268 264 257 250 244 235 230 234 235 234 235 229 223 218 222 229 232 223 240 236 235 237 237 235 231 227 228 227 227 231 237 241 243 242
269 283 264 273 287 291 293 294 277 271 272 269 255 248 246 235 233 229 232 235 236 234 224 220 219 225 232 224 226 238 235 232 233 233 232 228 228 228 229 235 239 241 240 237
282 280 262 264 277 282 292 286 276 274 272 279 262 246 241 238 231 228 229 232 235 240 232 226 220 219 226 228 229 235 237 236 236 236 234 229 227 226 226 228 225 231 234 233
290 280 264 266 268 277 283 283 277 271 271 276 266 246 235 236 232 229 226 226 231 236 239 229 224 221 222 227 231 231 234 235 238 239 235 230 227 224 228 229 228 233 237 234
293 278 278 280 284 285 283 278 270 268 268 263 260 245 237 228 233 223 222 220 225 230 238 233 229 218 222 224 228 233 233 239 242 242 237 229 227 226 229 229 231 233 230 235
295 296 297 295 297 299 281 271 271 269 265 263 252 252 247 230 229 222 220 219 221 224 232 233 232 221 222 225 229 234 234 236 241 242 239 232 227 226 226 226 228 229 233 241
308 303 307 305 306 285 274 274 268 266 267 273 256 249 240 231 232 218 214 215 219 222 227 231 232 231 218 225 226 233 234 227 234 236 236 231 225 222 225 227 227 233 238 244
319 317 314 315 303 288 279 275 271 265 254 257 248 250 211 209 219 215 214 215 221 222 224 232 226 232 224 220 225 229 235 229 225 231 233 230 227 223 224 229 233 238 241 247
321 320 329 324 315 308 275 258 247 237 229 248 245 200 187 184 189 202 214 219 223 224 226 233 232 231 233 217 223 224 228 238 226 225 224 226 226 225 226 234 241 244 244 248
329 334 349 337 329 327 329 289 260 254 231 214 157 182 168 168 192 190 205 211 217 225 230 231 234 224 224 212 221 223 225 229 239 233 223 223 229 235 239 236 240 246 248 252
337 356 354 346 350 29 177 213 258 229 220 216 318 158 178 155 168 172 192 207 217 223 227 233 233 232 220 212 219 223 225 228 232 240 239 232 232 231 238 239 242 247 252 255
351 357 354 342 1 241 163 236 235 206 357 10 337 92 125 134 153 158 174 207 216 223 230 230 232 237 236 213 217 225 225 228 233 236 243 239 242 240 242 244 246 251 257 263
343 343 355 326 327 248 322 322 299 263 319 336 2 303 231 160 163 173 184 202 220 224 233 233 235 244 241 226 218 223 229 228 233 239 240 243 243 243 242 244 248 254 259 263
328 329 336 331 293 279 292 311 314 318 74 18 313 257 172 216 226 225 244 256 262 247 227 203 229 233 224 222 216 225 234 230 234 237 242 240 244 246 247 250 251 252 257 266
322 344 320 330 306 302 306 324 338 330 137 212 263 350 267 252 242 272 264 251 247 252 247 214 215 223 225 225 222 226 233 236 230 234 239 242 243 245 247 250 254 257 258 262
308 335 323 308 326 287 227 72 48 74 316 295 253 254 256 256 260 265 252 238 240 239 237 225 221 218 222 227 232 236 239 238 235 235 238 240 243 245 245 246 251 254 257 261
244 308 321 299 287 296 165 122 77 70 55 219 210 210 217 214 223 241 259 254 261 251 219 219 216 217 221 220 228 234 238 234 237 238 240 245 249 250 250 251 252 254 257 261
227 246 317 307 308 309 2 18 327 183 177 172 206 213 220 226 236 241 243 255 263 265 268 248 230 232 224 223 232 236 235 234 237 243 249 247 251 251 251 251 252 255 258 261
247 244 273 307 297 288 264 252 284 253 231 199 194 196 211 206 230 239 239 236 247 266 272 265 251 245 241 242 245 243 245 250 242 243 240 241 245 247 248 254 258 259 262 262
241 252 248 262 253 260 260 255 270 255 236 256 223 209 201 203 220 236 245 262 259 257 262 269 275 276 270 267 265 266 263 263 259 254 251 250 248 248 251 253 254 253 252 252
234 244 251 260 258 259 257 269 265 264 258 270 270 255 237 238 252 267 276 287 293 293 291 289 291 293 291 290 289 286 284 282 281 279 276 274 271 269 269 268 264 263 262 261
273 236 248 257 262 263 268 252 249 269 269 269 277 308 311 310 300 282 283 290 295 297 300 297 294 291 290 289 289 287 286 286 284 282 282 281 280 279 279 282 283 283 282 281
24 20 250 247 252 258 260 259 259 257 256 257 258 261 261 268 271 270 278 282 283 288 290 292 293 293 291 288 285 284 284 284 284 283 282 282 281 281 279 278 279 279 279 278
17 23 30 341 249 248 257 262 266 269 269 266 263 266 266 270 276 280 284 288 291 293 294 295 294 292 290 289 289 289 289 288 287 286 285 284 282 280 279 278 277 276 275 275
1 11 20 30 32 7 264 254 259 268 272 269 269 273 277 278 279 283 290 293 296 297 298 298 296 295 294 293 294 294 292 288 286 284 282 281 280 279 278 276 275 273 272 272